{"data":{"norad_id":48577,"epoch":"2026-09-19T14:26:56.261184Z","epoch_age_seconds":114778,"freshness":"FRESH","line1":"1 48577U 21041AA  26262.60204006  .00001202  00000+0  50462-4 0  9990","line2":"2 48577  53.1595 304.4781 0001252  82.1260 277.9883 15.31710965294981","mean_motion":15.31710965,"eccentricity":0.0001252,"inclination_deg":53.1595,"raan_deg":304.4781,"arg_perigee_deg":82.126,"mean_anomaly_deg":277.9883,"bstar":5.0462e-5,"rev_number":29498,"period_min":94.012514952519,"perigee_km":469.84983401868,"apogee_km":471.56478463374,"semimajor_km":6848.8443093262,"source":"CELESTRAK","updated_at":"2026-09-20T09:00:39.136150Z"}}